Saint David, ME

5:58 PM EST on January 21, 2017 (GMT -0500)
Frenchville

Weather History for KFVE - June, 2013

Change the Weather History Date:

Monday, June 24, 2013

  Actual Average Record
Temperature  
Mean Temperature 71 °F 62 °F  
Max Temperature 81 °F 71 °F 82 °F (1999)
Min Temperature 60 °F 52 °F 43 °F (2016)
Degree Days  
Heating Degree Days 0    
Month to date heating degree days 190  
Since 1 July heating degree days 9072  
Cooling Degree Days 6    
Month to date cooling degree days 8  
Year to date cooling degree days 19  
Growing Degree Days 20 (Base 50)    
Moisture  
Dew Point 61 °F    
Average Humidity 83    
Maximum Humidity 100    
Minimum Humidity 50    
Precipitation  
Precipitation 0.00 in 0.14 in 1.78 in (2014)
Month to date precipitation 2.44 2.91  
Year to date precipitation 12.33 12.81  
Sea Level Pressure  
Sea Level Pressure 29.82 in    
Wind  
Wind Speed 6 mph (WSW)    
Max Wind Speed 15 mph    
Max Gust Speed 20 mph    
Visibility 6 miles    
Events Fog    
T = Trace of Precipitation, MM = Missing Value Source: NWS Daily Summary

Daily Weather History Graph

Daily Weather History Graph

Search for Another Location

Airport or City:

Trip Planner

Search our weather history database for the weather conditions in past years. The results will help you decide how hot, cold, wet, or windy it might be!

Date:

Astronomy

Jun. 24, 2013 Rise Set
Actual Time 4:37 AM EDT 8:33 PM EDT
Civil Twilight 3:57 AM EDT 9:13 PM EDT
Nautical Twilight 3:02 AM EDT 10:09 PM EDT
Astronomical Twilight 1:36 AM EDT 11:34 PM EDT
Moon 9:23 PM EDT (6/24) 6:08 AM EDT (6/24)
Length of Visible Light 17h 16m
Length of Day
15h 55m
Full, 98% of the Moon is Illuminated
Jun 24
Full
Jun 30
Last Quarter
Jul 8
New
Jul 15
First Quarter
Jul 22
Full

Hourly Weather History & Observations

Time (EDT) Temp. Heat Index Dew Point Humidity Pressure Visibility Wind Dir Wind Speed Gust Speed Precip Events Conditions
12:53 AM 62.1 °F - 61.0 °F 96% 29.87 in 5.0 mi South 3.5 mph - N/A   Clear
1:26 AM 62.6 °F - 60.8 °F 94% 29.87 in 3.0 mi South 4.6 mph - N/A   Partly Cloudy
1:38 AM 62.6 °F - 60.8 °F 94% 29.87 in 1.8 mi South 3.5 mph - N/A   Mostly Cloudy
1:50 AM 62.6 °F - 60.8 °F 94% 29.87 in 3.0 mi South 4.6 mph - N/A   Scattered Clouds
1:53 AM 61.0 °F - 61.0 °F 100% 29.86 in 4.0 mi South 3.5 mph - N/A   Scattered Clouds
2:53 AM 61.0 °F - 60.1 °F 97% 29.86 in 3.0 mi WSW 4.6 mph - N/A   Clear
3:16 AM 60.8 °F - 60.8 °F 100% 29.87 in 1.5 mi SW 3.5 mph - N/A   Partly Cloudy
3:18 AM 60.8 °F - 60.8 °F 100% 29.87 in 0.8 mi WSW 3.5 mph - N/A   Mist
3:30 AM 60.8 °F - 60.8 °F 100% 29.88 in 1.2 mi West 6.9 mph - N/A   Scattered Clouds
3:32 AM 60.8 °F - 60.8 °F 100% 29.88 in 2.5 mi West 5.8 mph - N/A   Partly Cloudy
3:39 AM 60.8 °F - 60.8 °F 100% 29.88 in 5.0 mi WNW 4.6 mph - N/A   Partly Cloudy
3:53 AM 61.0 °F - 60.1 °F 97% 29.86 in 6.0 mi West 6.9 mph - N/A   Partly Cloudy
4:53 AM 61.0 °F - 60.1 °F 97% 29.86 in 4.0 mi NW 5.8 mph - N/A   Overcast
5:53 AM 62.1 °F - 61.0 °F 96% 29.85 in 4.0 mi Calm Calm - N/A   Partly Cloudy
6:08 AM 60.8 °F - 60.8 °F 100% 29.87 in 1.0 mi SW 6.9 mph - N/A   Mist
6:15 AM 60.8 °F - 59.0 °F 94% 29.87 in 0.2 mi SW 4.6 mph - N/A Fog Fog
6:34 AM 62.6 °F - 60.8 °F 94% 29.86 in 1.5 mi West 3.5 mph - N/A   Overcast
6:36 AM 62.6 °F - 62.6 °F 100% 29.86 in 3.0 mi West 3.5 mph - N/A   Overcast
6:51 AM 62.6 °F - 60.8 °F 94% 29.85 in 2.5 mi South 4.6 mph - N/A   Mostly Cloudy
6:53 AM 62.1 °F - 61.0 °F 96% 29.84 in 3.0 mi South 4.6 mph - N/A   Mostly Cloudy
7:53 AM 64.9 °F - 62.1 °F 90% 29.84 in 9.0 mi Calm Calm - N/A   Clear
8:53 AM 70.0 °F - 63.0 °F 78% 29.85 in 10.0 mi WSW 4.6 mph - N/A   Clear
9:53 AM 75.0 °F - 64.0 °F 69% 29.83 in 10.0 mi Variable 3.5 mph - N/A   Partly Cloudy
10:53 AM 78.1 °F - 62.1 °F 58% 29.82 in 10.0 mi WSW 8.1 mph 16.1 mph N/A   Clear
11:53 AM 78.1 °F - 61.0 °F 56% 29.81 in 10.0 mi West 9.2 mph - N/A   Mostly Cloudy
12:53 PM 81.0 °F 81.7 °F 61.0 °F 50% 29.79 in 10.0 mi West 11.5 mph 18.4 mph N/A   Clear
1:53 PM 78.1 °F - 61.0 °F 56% 29.77 in 10.0 mi WSW 6.9 mph - N/A   Overcast
2:53 PM 75.9 °F - 60.1 °F 58% 29.77 in 10.0 mi West 10.4 mph - N/A   Overcast
3:53 PM 78.1 °F - 61.0 °F 56% 29.75 in 10.0 mi West 13.8 mph 19.6 mph N/A   Overcast
4:53 PM 78.1 °F - 62.1 °F 58% 29.74 in 10.0 mi West 10.4 mph 17.3 mph N/A   Mostly Cloudy
5:53 PM 77.0 °F - 64.0 °F 64% 29.72 in 10.0 mi West 6.9 mph - N/A   Mostly Cloudy
6:53 PM 75.9 °F - 64.0 °F 67% 29.72 in 10.0 mi West 5.8 mph - N/A   Mostly Cloudy
7:53 PM 73.9 °F - 63.0 °F 68% 29.72 in 10.0 mi West 9.2 mph - N/A   Partly Cloudy
8:53 PM 73.0 °F - 62.1 °F 68% 29.73 in 10.0 mi West 8.1 mph - N/A   Mostly Cloudy
9:53 PM 71.1 °F - 62.1 °F 73% 29.73 in 10.0 mi West 5.8 mph - N/A   Partly Cloudy
10:53 PM 70.0 °F - 63.0 °F 78% 29.73 in 10.0 mi West 4.6 mph - N/A   Clear
11:53 PM 69.1 °F - 63.0 °F 81% 29.72 in 10.0 mi West 4.6 mph - N/A   Clear